EHI
0 0 0 0 0 0 0 0 0 0 0 0 0 0 0 0 0 0 0 0 0 0 0 0 1 2 3 3 2 1 0 0 0 0 1 2 2 2 3 3 1 0 1 1
0 0 0 0 0 0 0 0 0 0 0 0 0 0 0 0 0 0 0 0 0 0 0 0 0 1 2 2 2 1 0 0 0 0 0 1 1 2 2 2 1 0 0 1
0 0 0 0 0 0 0 0 0 0 0 0 0 0 0 0 0 0 0 0 0 0 0 0 0 0 1 1 1 1 0 0 0 0 0 0 0 1 1 1 1 0 0 0
0 0 0 0 0 0 0 0 0 0 0 0 0 0 0 0 0 0 0 0 0 0 0 0 0 0 0 0 0 1 0 0 1 1 1 0 0 0 0 0 0 0 0 0
0 0 0 0 0 0 0 0 0 0 0 0 0 0 0 0 0 0 0 0 0 0 0 0 0 0 0 0 0 1 1 1 2 2 2 1 0 0 0 0 0 0 0 0
0 0 0 0 0 0 0 0 0 0 0 0 0 0 0 0 0 0 0 0 0 0 0 0 0 0 0 0 0 1 2 2 3 3 3 2 1 1 0 0 0 0 0 0
0 0 0 0 0 0 0 0 0 0 0 0 0 0 0 0 0 0 0 0 0 0 0 0 0 0 0 0 0 0 1 2 2 2 2 2 2 2 1 1 0 0 0 0
0 0 0 0 0 0 0 0 0 0 0 0 0 0 0 0 0 0 0 0 0 0 0 0 0 0 0 0 0 0 0 1 1 1 1 1 1 2 2 2 1 0 0 0
0 0 0 0 0 0 0 0 0 0 0 0 0 0 0 0 0 0 0 0 0 0 0 0 0 0 0 0 0 0 0 0 0 1 1 1 0 1 2 2 1 0 0 0
0 0 0 0 0 0 0 0 0 0 0 0 0 0 0 0 0 0 0 0 0 0 0 0 0 0 0 0 0 0 0 0 0 1 1 1 1 0 1 2 1 0 0 0
0 0 0 0 0 0 0 0 0 0 0 0 0 0 0 0 0 0 0 0 0 0 0 0 0 0 0 0 0 0 0 0 0 0 1 1 1 0 1 1 1 0 0 0
0 0 0 0 0 0 0 0 0 0 0 0 0 0 0 0 0 0 0 0 0 0 0 0 0 0 0 0 0 0 0 0 0 0 0 0 0 0 0 0 0 0 0 0
0 0 0 0 0 0 0 0 0 0 0 0 0 0 0 0 0 0 0 0 0 0 0 0 0 0 0 0 0 0 0 0 0 0 0 0 0 0 0 0 0 0 0 0
0 0 0 0 0 0 0 0 0 0 0 0 0 0 0 0 0 0 0 0 0 0 0 0 0 0 0 0 0 0 0 0 0 0 0 0 0 0 0 0 0 0 0 0
0 0 0 0 0 0 0 0 0 0 0 0 0 0 0 0 0 0 0 0 0 0 0 0 0 0 0 0 0 0 0 0 0 0 0 0 0 0 0 0 0 0 0 0
0 0 0 0 0 0 0 0 0 0 0 0 0 0 0 0 0 0 0 0 0 0 0 0 0 0 0 0 0 0 0 0 0 0 0 0 0 0 0 0 0 0 0 0
0 0 0 0 0 0 0 0 0 0 0 0 0 0 0 0 0 0 0 0 0 0 0 0 0 0 0 0 0 0 0 0 0 0 0 0 0 0 0 0 0 0 0 0
0 0 0 0 0 0 0 0 0 0 0 0 0 0 0 0 0 0 0 0 0 0 0 0 0 0 0 0 0 0 0 0 0 0 0 0 0 0 0 0 0 0 0 0
0 0 0 0 0 0 0 0 0 0 0 0 0 0 0 0 0 0 0 0 0 0 0 0 0 0 0 0 0 0 0 0 0 0 0 0 0 0 0 0 0 0 0 0
0 0 0 0 0 0 0 0 0 0 0 0 0 0 0 0 0 0 0 0 0 0 0 0 0 0 0 0 0 0 0 0 0 0 0 0 0 0 0 0 0 0 0 0
0 0 0 0 0 0 0 0 0 0 0 0 0 0 0 0 0 0 0 0 0 0 0 0 0 0 0 0 0 0 0 0 0 0 0 0 0 0 0 0 0 0 0 0
0 0 0 0 0 0 0 0 0 0 0 0 0 0 0 0 0 0 0 0 0 0 0 0 0 0 0 0 0 0 0 0 0 0 0 0 0 0 0 0 0 0 0 0
0 0 0 0 0 0 0 0 0 0 0 0 0 0 0 0 0 0 0 0 0 0 0 0 0 0 0 0 0 0 0 0 0 0 0 0 0 0 0 0 0 0 0 0
0 0 0 0 0 0 0 0 0 0 0 0 0 0 0 0 0 0 0 0 0 0 0 0 0 0 0 0 0 0 0 0 0 0 0 0 0 0 0 0 0 0 0 0
0 0 0 0 0 0 0 0 0 0 0 0 0 0 0 0 0 0 0 0 0 0 0 0 0 0 0 0 0 0 0 0 0 0 0 0 0 0 0 0 0 0 0 0
0 0 0 0 0 0 0 0 0 0 0 0 0 0 0 0 0 0 0 0 0 0 0 0 0 0 0 0 0 0 0 0 0 0 0 0 0 0 0 0 0 0 0 0
Wind_Speed
2 3 4 5 5 3 4 5 6 4 2 5 9 11 8 5 6 6 5 5 5 5 4 3 3 2 2 2 2 2 2 2 2 2 2 2 2 2 2 2 2 3 3 3
4 5 5 3 4 4 4 6 6 3 1 5 8 11 8 6 6 6 6 5 5 5 4 3 3 2 3 3 3 3 3 3 3 2 2 2 2 2 2 2 2 3 3 3
6 2 4 5 5 5 6 6 5 3 3 4 6 8 6 3 4 4 5 5 4 4 4 4 3 3 3 3 3 3 3 3 3 3 2 2 2 2 2 2 2 3 4 4
5 3 5 6 6 6 6 4 4 4 4 3 3 6 3 2 3 3 4 4 4 4 4 3 3 3 4 4 3 3 3 4 3 3 3 3 3 3 3 2 2 3 3 4
4 4 5 6 5 6 2 1 3 4 5 5 5 6 4 1 3 3 3 3 3 3 3 4 4 4 4 3 3 3 3 3 3 3 4 4 4 3 2 3 3 3 3 3
2 3 3 4 3 4 2 2 2 2 4 6 6 7 5 2 3 3 3 3 3 3 3 3 3 3 3 3 3 3 3 3 3 4 4 5 5 4 3 4 4 3 2 3
3 4 2 2 4 4 3 3 2 3 4 5 3 6 6 2 2 3 4 4 4 4 3 3 3 3 3 4 3 3 3 4 4 4 5 5 6 6 6 5 5 4 3 3
6 5 5 4 4 5 6 5 4 4 5 2 3 7 3 2 3 3 3 3 3 3 3 3 3 3 3 4 3 3 4 4 4 4 5 5 6 5 4 5 4 4 4 4
7 5 3 3 2 4 6 5 2 1 1 4 5 5 5 2 2 2 2 2 2 3 4 3 3 3 3 4 4 4 4 4 4 5 5 5 5 5 5 5 5 4 4 3
3 4 3 2 3 1 3 4 3 4 4 6 5 5 4 3 3 2 2 2 3 4 4 4 3 4 3 3 4 4 4 4 4 4 4 3 4 5 5 5 5 5 4 4
2 3 3 4 7 7 5 6 4 4 4 5 6 4 2 3 3 3 3 3 3 3 4 4 4 4 3 3 3 4 4 4 4 4 4 4 4 4 4 4 5 5 4 5
3 2 3 3 0 2 5 6 7 5 5 5 6 4 1 2 2 2 3 3 3 3 3 3 4 4 3 3 4 4 4 4 5 4 4 4 4 3 4 4 4 5 5 5
5 4 3 3 3 3 5 5 5 3 3 5 7 5 2 1 2 3 3 3 3 4 4 3 3 3 3 3 3 4 4 5 5 4 4 4 4 3 4 4 4 4 4 4
4 3 6 7 4 5 6 7 7 6 6 8 11 10 6 5 5 5 4 4 4 4 4 4 4 4 4 4 3 4 4 5 5 4 4 4 4 3 3 3 3 3 4 4
3 4 4 5 5 5 7 10 11 12 12 11 11 11 10 7 6 6 5 4 4 4 4 4 4 4 4 4 4 4 4 4 5 4 4 4 4 3 2 2 2 3 3 3
2 3 2 5 5 5 8 12 13 13 12 12 12 13 9 6 5 5 5 5 5 5 5 5 5 5 5 4 4 4 4 4 4 4 4 4 3 2 2 2 1 2 2 2
3 3 3 4 3 4 10 11 14 11 10 10 12 11 6 5 6 6 5 5 5 5 5 5 6 5 5 5 4 4 4 4 3 3 4 4 4 3 2 2 1 2 2 2
4 4 2 2 3 10 4 1 7 10 11 11 10 8 6 6 6 6 5 5 5 5 5 5 5 5 5 5 4 4 3 3 3 3 3 3 3 3 2 2 2 2 2 2
4 4 3 3 6 9 6 3 5 7 8 8 10 9 7 3 4 6 4 4 5 5 5 5 5 5 5 4 3 3 3 3 3 3 3 3 4 3 3 2 3 2 2 2
1 2 3 4 6 8 2 1 1 3 6 3 6 7 5 3 4 4 2 3 4 5 4 4 4 4 4 4 3 3 3 3 3 3 3 3 3 3 3 3 3 3 2 2
3 3 6 7 8 8 2 2 4 5 3 0 4 5 5 6 5 3 3 4 4 4 4 4 3 3 4 3 3 3 3 4 4 3 3 3 3 3 3 3 3 2 2 2
6 6 6 6 7 8 3 5 6 3 2 2 3 4 5 5 4 4 4 4 4 4 4 4 3 3 3 3 3 4 4 4 3 3 3 3 3 3 2 3 2 2 2 2
7 6 5 7 7 3 4 5 5 4 4 4 3 3 3 4 5 5 4 4 4 4 4 3 3 4 3 3 3 4 4 3 3 3 3 3 3 2 2 2 2 2 2 2
5 4 5 7 9 7 7 7 6 6 6 5 4 4 4 5 5 5 5 4 4 4 4 3 3 4 4 3 4 4 4 3 3 3 3 3 2 2 2 2 2 2 2 2
5 5 6 8 9 7 8 8 8 7 6 6 5 5 5 5 6 6 5 5 5 4 4 4 4 4 4 4 4 3 3 3 3 3 3 2 2 2 2 2 2 3 3 3
7 8 9 9 7 6 6 5 6 6 7 7 6 6 5 6 6 6 6 5 5 4 4 4 4 4 4 4 4 4 3 3 3 3 3 2 2 2 2 2 2 2 3 4
Wind_Direction
161 188 199 205 219 252 224 229 249 256 270 257 254 265 266 255 254 256 254 261 271 279 293 300 301 286 278 275 272 263 248 231 211 222 229 222 222 224 225 233 220 209 205 196
175 207 215 207 200 210 222 237 251 261 238 264 273 272 267 243 241 250 256 262 269 280 291 301 305 311 291 276 265 263 257 239 225 227 239 241 234 240 239 233 232 216 206 203
200 196 198 195 191 212 235 238 246 266 293 243 280 262 235 220 241 258 264 268 272 272 277 286 288 289 291 288 277 265 264 250 229 220 219 215 209 218 220 227 231 224 211 205
210 204 193 199 212 221 232 233 243 249 260 255 277 276 245 228 260 269 274 276 281 284 284 287 285 286 286 286 287 275 262 254 235 213 212 212 220 227 232 228 225 229 218 211
200 198 200 212 222 216 227 221 230 241 244 261 232 255 262 223 268 280 290 294 300 303 299 290 287 285 289 294 295 285 271 263 246 228 220 221 231 238 239 226 225 228 215 215
206 210 226 228 226 199 147 141 138 197 223 245 229 234 265 217 261 299 312 315 322 325 320 310 303 303 308 316 318 303 285 276 264 247 235 226 229 230 231 232 225 229 222 214
209 203 198 194 173 174 187 183 207 210 217 236 167 231 255 280 290 296 310 319 326 335 333 328 317 310 312 316 319 306 294 284 278 264 248 238 235 230 229 234 230 227 225 221
203 211 190 193 197 191 203 211 216 240 250 244 194 238 254 345 318 302 307 313 329 344 346 335 318 308 313 317 314 304 296 287 284 273 262 249 241 235 231 229 230 233 232 224
201 206 164 192 220 195 191 207 266 262 275 253 233 251 272 268 267 290 321 330 339 349 347 339 333 328 324 322 315 304 296 292 288 278 266 254 243 237 234 229 226 233 235 224
193 201 186 182 181 177 225 173 175 202 231 252 246 243 246 225 250 269 302 321 335 346 343 343 341 333 327 324 317 310 307 300 293 287 278 264 253 245 238 231 223 227 230 222
185 186 178 185 203 194 173 184 198 202 246 252 259 244 207 229 248 251 272 293 311 326 336 338 338 334 334 337 333 327 324 319 309 304 296 278 262 252 244 233 224 222 219 211
167 183 211 211 188 277 217 204 193 208 218 239 261 261 100 225 265 270 279 286 300 311 324 330 332 335 338 339 336 333 329 328 324 316 305 292 275 258 248 240 229 223 217 209
157 168 184 194 184 193 218 213 213 216 206 218 235 248 122 247 285 277 273 282 293 303 316 326 331 329 329 332 334 334 330 328 328 321 312 304 285 262 250 241 231 222 209 202
158 188 222 237 252 196 214 214 208 202 218 231 240 255 259 273 283 286 282 281 287 294 304 316 321 320 322 324 327 325 326 325 325 324 316 312 299 277 259 245 231 214 204 199
182 208 230 265 271 234 230 222 214 220 228 237 249 252 262 268 276 283 282 281 283 287 289 298 306 308 309 314 320 320 320 323 321 320 321 317 312 294 273 252 230 209 204 206
169 200 220 256 252 250 255 240 226 228 235 244 257 264 268 273 268 267 270 273 273 276 282 291 295 297 296 299 306 308 311 318 316 317 322 322 320 305 286 272 247 209 209 212
169 167 205 245 265 269 252 232 216 218 222 221 235 250 259 257 257 262 266 269 273 276 280 283 287 287 288 288 289 292 299 306 308 312 321 327 324 319 299 290 263 230 219 214
179 179 218 242 219 239 253 251 215 222 234 229 240 251 253 260 276 276 262 264 273 279 281 282 286 289 289 286 284 288 290 295 301 311 322 323 319 317 302 286 269 250 233 222
215 189 194 220 246 266 265 214 200 216 250 233 234 247 259 282 291 265 253 255 266 274 280 284 284 285 283 279 281 285 289 294 299 306 312 314 310 310 307 277 265 259 245 234
158 197 202 212 242 252 258 126 176 193 252 223 223 234 240 218 255 271 285 270 277 285 290 291 292 289 281 282 278 274 283 288 291 297 301 303 303 300 297 289 266 253 244 239
182 197 213 224 242 263 274 153 164 211 249 37 221 229 222 229 263 301 297 284 284 293 297 295 291 284 280 281 273 270 276 283 294 301 302 302 303 298 296 295 281 260 242 233
194 193 204 207 228 248 135 155 204 255 340 281 245 235 234 249 273 283 284 284 289 297 299 300 293 288 282 269 262 268 277 292 299 299 297 296 297 299 295 290 288 273 252 236
217 217 212 215 235 303 203 226 255 288 275 277 265 255 243 255 263 273 279 280 282 285 291 291 283 284 280 265 258 267 284 293 290 286 287 292 298 298 290 281 282 277 263 246
226 228 231 249 258 262 256 262 270 270 272 280 276 265 249 253 262 267 269 272 275 279 278 275 272 270 274 274 269 272 283 287 278 275 281 288 293 296 287 280 277 268 259 250
231 204 228 251 266 276 260 252 258 264 268 271 274 267 256 254 259 261 265 266 268 272 270 263 260 264 270 274 275 279 278 274 269 268 272 277 279 284 284 282 275 270 268 268
223 216 221 243 246 243 264 272 261 258 263 266 270 273 265 254 255 262 264 263 262 262 260 259 260 260 267 268 271 275 271 261 259 261 263 267 271 279 284 286 299 313 282 289